Back to catalog

SCOUT B-1 DEB

AliveLEO
NORAD 8868·DEBRIS·🇺🇸 United States

Launched May 22, 1976 from Vandenberg Space Force Base

Loading…

Next Passes (next 24 hours)

TLE

FreshSource: Space-Track

Epoch: Sep 14, 2026, 09:04 UTC

1 08868U 76047D   26257.37804744  .00000130  00000-0  16721-3 0  9997
2 08868 100.0790  46.8845 0050113  43.7337 345.5614 13.81727603529867

Track SCOUT B-1 DEB in real time with AllMySat

Download on the App Store